Location: �quirre
(50.4736°N, 2.2351°E)
Time: 10:43:48
(UTC+00:00)

Lacrosse 4 Rocket - Pass Details

Date: 07 August 2020
Orbit: 544 x 615 km, 68.0° (Epoch: 20 September)

Event Time Altitude Azimuth Distance (km) Brightness Sun altitude
Exits shadow 00:12:59 63° 98° (E) 648 1.5 -23.1°
Drops below altitude 10° 00:16:54 10° 40° (NE) 1,878 4.8 -23.0°
Sets 00:19:07 0° 37° (NE) 2,768 5.8 -23.0°
